Location: Newark
(54.6833°N, 25.2833°E)
Time: 07:22:05
(UTC+00:00)

Tiros 1 despin weight - Pass Details

Date: 22 November 2019
Orbit: 594 x 642 km, 48.2° (Epoch: 13 December)

Event Time Altitude Azimuth Distance (km) Brightness Sun altitude
Rises 10:05:31 0° 201° (SSW) 2,819 ? 15.2°
Reaches altitude 10° 10:08:52 10° 174° (S) 1,921 ? 15.2°
Maximum altitude 10:10:58 13° 145° (SE) 1,716 ? 15.2°
Drops below altitude 10° 10:13:05 10° 117° (ESE) 1,929 ? 15.2°
Sets 10:16:26 0° 90° (E) 2,840 ? 15.2°
